Location: ????
(31.8968°N, 35.2543°E)
Time: 14:15:25
(UTC+00:00)

Daily predictions for brighter satellites

Satellite Brightness Start Highest point End
(mag) Time Altitude Azimuth Time Altitude Azimuth Time Altitude Azimuth
Cosmos 2084 Rocket 3.9 15:19:41 10° NW 15:24:06 70° WSW 15:28:29 10° SSE
Cosmos 1125 Rocket 3.8 15:19:28 10° SSW 15:24:38 76° WNW 15:29:50 10° NNE
Nadezhda 3 Rocket 4.2 15:20:20 10° N 15:26:28 52° E 15:32:37 10° SSE
H-2A R/B 3.5 15:24:31 10° S 15:28:14 57° W 15:32:02 10° NNW
Cosmos 1758 Rocket 4.3 15:24:47 10° SSE 15:28:36 32° E 15:32:27 10° NNE
Cosmos 2227 Rocket 2.8 15:23:35 10° S 15:28:43 37° ESE 15:33:53 10° NE
COSMO-SKYMED 1 2.7 15:24:28 10° NNE 15:28:44 57° E 15:32:59 10° S
Cosmos 2360 Rocket 3.8 15:23:32 10° NW 15:28:47 41° WSW 15:34:00 10° S
Okean-O 2.8 15:25:02 10° SSE 15:29:19 52° ENE 15:33:38 10° N
H-2A ROCKET BODY 2.9 15:16:38 10° W 15:31:35 68° S 15:35:16 10° E
ASTRO E2 3.9 15:29:33 10° W 15:33:18 41° SSW 15:37:01 10° SE
Cosmos 1626 Rocket 4.3 15:30:15 10° SSW 15:34:30 57° W 15:38:47 10° N
NOSS 0 Rocket 4.5 15:29:06 10° N 15:34:45 35° ENE 15:40:20 10° SE
Envisat 3.0 15:31:32 10° SSE 15:36:35 78° ENE 15:41:40 10° N
Cosmos 2219 Rocket 2.2 15:30:59 10° NNW 15:36:38 67° ENE 15:42:14 10° SSE
COSMOS 2428 2.7 15:32:59 10° NNW 15:38:43 68° ENE 15:44:24 10° SSE
Cosmos 2341 Rocket 4.2 15:33:01 10° SSE 15:39:12 55° E 15:45:24 10° NNE
SL-8 Rocket 4.4 15:36:03 10° SSE 15:41:51 40° E 15:47:39 10° NNE
CZ-4 R/B 1.7 15:45:53 10° SE 15:49:38 42° ENE 15:53:28 10° N
ISS -3.8 15:47:49 10° SW 15:51:10 89° SE 15:53:52 15° NE
Atlas Centaur 2 3.2 15:47:25 10° SSW 15:51:39 30° SSE 15:56:09 13° E
Cosmos 1048 Rocket 4.0 15:47:21 10° NNW 15:52:29 89° W 15:57:36 10° SSE
Cosmos 1825 Rocket 3.5 15:50:03 10° S 15:54:21 59° E 15:58:38 10° NNE
ADEOS Rocket 4.0 15:48:34 10° NE 15:54:40 34° E 16:01:13 10° SSE
Cosmos 44 3.5 15:51:45 10° S 15:56:15 44° ESE 15:59:45 15° NE
SL-8 R/B 3.8 15:52:05 10° SW 15:56:53 76° NW 16:00:54 15° NE
Centaur AC-116 4.2 15:56:20 10° WSW 15:58:21 24° S 16:02:01 10° ESE
Iridium 96 4.4 16:02:20 29° E 16:02:20 29° E 16:04:21 10° SSE
CSL-04 Debris 4.3 15:59:40 10° SSE 16:04:50 50° ENE 16:10:01 10° N
FALCON 9 R/B 4.0 15:48:33 10° SW 16:11:41 47° SSE 16:16:49 20° E
Cosmos 2218 Rocket 4.0 16:06:23 10° S 16:12:33 62° E 16:18:49 10° NNE
Meteor 2-10 Rocket 4.0 16:08:18 10° N 16:13:09 36° ENE 16:17:48 10° SE
Haruka 2.7 16:16:38 10° WSW 16:19:51 59° SSE 16:21:53 28° E
Ariane Rocket 3.8 16:15:53 10° SE 16:20:07 28° ENE 16:24:23 10° NNE
CZ-2D R/B 3.2 16:16:38 10° SSE 16:20:21 55° ENE 16:24:06 10° N
Cosmos 864 Rocket 4.4 16:15:15 10° S 16:21:18 65° E 16:27:21 10° NNE
IUS-7 SRM-1 4.2 16:15:20 10° W 16:24:08 42° SSW 16:25:55 21° SE
Cosmos 1339 Rocket 4.4 16:21:07 10° N 16:27:07 59° E 16:33:08 10° SSE
Cosmos 2237 Rocket 2.1 16:21:32 10° NNW 16:27:07 64° ENE 16:32:40 10° SSE
Cosmos 1241 Rocket 4.4 16:21:01 10° NNW 16:27:11 66° ENE 16:33:25 10° SE
Cosmos 2333 Rocket 3.7 16:22:08 10° NW 16:27:21 38° WSW 16:32:31 10° S
Cosmos 494 Rocket 4.1 16:23:37 10° NNW 16:28:43 74° WSW 16:33:48 10° S
YAOGAN 1 2.6 16:25:22 10° S 16:29:40 78° WSW 16:34:00 10° NNW
CSL-04 Rocket 3.7 16:27:56 10° SSE 16:33:22 87° WSW 16:38:55 10° NNW
Shenzhou-11 Module 3.5 16:31:53 10° W 16:33:54 24° NW 16:33:54 24° NW
Cosmos 1328 3.9 16:34:19 10° S 16:38:19 76° W 16:41:15 18° N
Cosmos-2242 3.3 16:42:14 10° NNW 16:46:30 65° W 16:50:43 10° S
SL-16 R/B 3.5 16:42:44 10° N 16:45:16 23° NNE 16:45:16 23° NNE
Cosmos 2082 3.9 16:43:06 10° SSW 16:48:41 68° WNW 16:52:42 19° N
Cosmos 2366 rocket 4.3 16:43:31 10° SSW 16:49:38 68° W 16:55:52 10° N
Cosmos 1455 2.3 16:47:30 10° N 16:51:18 73° W 16:55:02 10° S
DELTA 2 R/B (1) 4.3 16:47:54 10° WNW 16:53:07 38° N 16:54:02 36° NNE
Cosmos 1939 Rocket 3.9 16:53:36 10° S 16:57:16 43° W 17:01:01 10° NNW
Cosmos 2297 Rocket 4.0 16:55:52 10° WSW 17:00:37 27° WNW 17:05:25 10° N
CZ-4C R/B 3.6 16:53:10 10° NW 17:00:47 61° WSW 17:09:03 10° SSE
Cosmos 2227 Rocket 4.2 17:08:18 10° WSW 17:12:48 24° WNW 17:17:19 10° N
Cosmos 2263 Rocket 4.5 17:13:27 10° SSE 17:13:32 10° SSE 17:13:32 10° SSE
Cosmos 1727 Rocket 4.1 17:16:24 10° N 17:22:33 73° W 17:28:40 10° S
CZ-3C R/B 3.7 17:20:53 10° W 17:39:19 28° SW 17:41:59 21° S
Atlas Centaur 2 2.9 17:34:45 10° WSW 17:38:45 49° SW 17:38:45 49° SW
